Temp
69 71 72 71 71 70 70 71 72 72 72 72 72 72 72 72 72 73 72 71 71 70 69 68 69 69 68 68 67 67 63 65
68 69 70 71 71 70 72 70 70 71 71 71 70 71 71 72 72 72 71 71 70 69 68 68 68 68 68 67 66 66 61 63
68 68 69 69 71 71 72 71 70 70 71 70 69 68 68 70 69 70 70 69 69 69 68 67 66 67 67 67 66 60 60 60
67 68 68 69 71 71 71 71 71 70 71 70 67 66 66 67 68 68 68 68 68 68 67 66 64 56 59 65 59 59 59 59
67 67 67 69 71 70 70 70 70 69 68 67 65 65 65 64 63 64 63 67 61 63 61 57 56 54 56 57 59 58 57 58
66 66 68 69 71 70 70 70 69 68 67 67 66 63 62 61 61 61 60 60 58 58 56 55 54 55 56 57 58 57 56 57
66 66 67 69 69 69 69 69 69 69 68 66 66 65 63 61 60 59 59 58 57 56 55 54 53 55 56 58 58 57 56 57
66 66 66 66 66 67 67 67 68 67 67 67 66 66 66 64 61 61 58 57 57 56 55 54 52 54 55 56 57 57 56 56
66 66 65 65 64 65 65 64 64 64 64 64 66 65 65 64 63 62 61 59 56 55 54 53 51 53 54 54 55 55 55 56
66 68 66 65 65 65 65 65 64 64 64 64 65 66 65 65 65 64 63 61 60 59 56 52 51 51 52 53 53 53 53 54
64 64 64 66 66 65 65 66 66 65 65 64 66 66 67 65 64 64 63 61 59 59 57 58 55 50 52 52 50 51 51 54
65 64 64 64 66 65 65 65 65 66 66 66 67 66 66 65 65 63 60 59 58 58 58 57 58 56 56 53 52 51 50 50
62 61 62 63 60 60 60 60 60 62 64 65 65 66 65 65 65 63 62 60 60 58 57 57 56 54 50 48 49 48 48 47
59 59 58 57 56 57 60 60 59 60 61 62 63 63 63 64 64 64 62 60 60 58 57 56 54 54 50 51 44 47 49 50
57 56 57 57 57 55 54 54 53 53 54 56 58 60 61 61 61 62 62 61 59 59 57 56 53 53 56 52 43 46 46 47
56 56 56 57 56 55 54 51 50 52 53 54 55 57 57 58 58 59 59 59 59 59 58 57 56 52 52 56 50 49 47 40
55 56 56 54 53 53 50 50 50 51 51 51 52 53 55 56 56 56 56 56 57 58 57 55 56 55 53 52 51 46 46 43
53 55 54 53 52 51 49 48 47 47 47 47 49 50 51 53 55 54 54 54 55 56 57 56 54 54 54 54 52 48 45 45
52 52 52 52 51 50 49 48 47 47 47 48 49 51 51 52 51 52 53 53 53 53 54 56 55 53 54 53 54 53 52 49
50 52 52 50 49 49 48 48 45 45 46 48 49 50 51 52 51 51 52 52 52 52 53 53 55 54 54 54 53 53 52 49
MSLP
1010.15 1010.64 1010.96 1011.05 1011.16 1011.57 1011.95 1012.39 1012.78 1013.02 1013.35 1013.78 1013.99 1014.27 1014.59 1014.87 1015.25 1015.53 1015.92 1016.01 1016.34 1016.63 1016.93 1016.97 1017.49 1017.37 1017.31 1017.28 1017.31 1017.21 1017.44 1017.50
1010.17 1010.54 1010.93 1011.12 1011.40 1011.61 1011.93 1012.36 1012.75 1012.96 1013.25 1013.67 1013.95 1014.27 1014.68 1014.93 1015.23 1015.41 1015.84 1016.14 1016.45 1016.73 1017.04 1017.25 1017.60 1017.77 1017.53 1017.45 1017.67 1017.78 1017.73 1017.66
1010.26 1010.55 1010.84 1011.17 1011.46 1011.77 1012.08 1012.45 1012.79 1013.10 1013.51 1013.81 1014.13 1014.49 1014.89 1015.15 1015.31 1015.50 1015.88 1016.25 1016.59 1016.89 1017.12 1017.57 1017.70 1017.91 1017.85 1017.98 1018.07 1018.15 1018.29 1018.29
1010.20 1010.54 1010.88 1011.22 1011.63 1011.94 1012.33 1012.62 1012.96 1013.25 1013.61 1014.03 1014.45 1014.83 1015.14 1015.36 1015.44 1015.52 1015.72 1016.25 1016.60 1016.82 1017.06 1017.28 1017.40 1017.78 1017.83 1017.95 1018.29 1018.58 1018.66 1018.73
1010.12 1010.52 1010.73 1011.12 1011.57 1011.90 1012.24 1012.47 1012.84 1013.21 1013.62 1014.10 1014.47 1014.61 1014.82 1015.15 1015.49 1015.54 1015.67 1016.06 1016.58 1016.67 1016.85 1017.18 1017.30 1017.58 1017.83 1017.91 1018.02 1018.27 1018.66 1018.82
1009.97 1010.48 1010.81 1011.02 1011.16 1011.78 1012.17 1012.54 1012.92 1013.20 1013.41 1013.76 1014.32 1014.82 1015.23 1015.46 1015.64 1015.80 1015.87 1016.02 1016.72 1016.97 1017.18 1017.46 1017.55 1017.35 1017.30 1017.52 1017.93 1018.16 1018.22 1018.35
1009.73 1010.23 1010.70 1011.06 1011.35 1011.69 1012.16 1012.56 1012.84 1013.12 1013.49 1013.84 1014.17 1014.50 1014.94 1015.47 1015.91 1016.14 1016.19 1016.17 1016.57 1016.93 1017.15 1017.49 1017.74 1017.54 1017.38 1017.32 1017.38 1017.72 1018.08 1018.23
1009.52 1010.18 1010.80 1011.27 1011.73 1012.11 1012.52 1012.69 1012.92 1013.24 1013.42 1013.63 1013.93 1014.21 1014.56 1015.09 1015.56 1015.89 1016.24 1016.46 1016.43 1016.76 1016.99 1017.12 1017.30 1017.45 1017.57 1017.49 1017.39 1017.45 1017.53 1017.77
1008.92 1009.75 1010.58 1011.15 1011.78 1012.05 1012.26 1012.44 1012.79 1013.08 1013.24 1013.49 1013.75 1013.95 1014.10 1014.35 1014.76 1015.01 1015.15 1015.66 1016.08 1016.53 1016.86 1017.16 1017.33 1017.40 1017.34 1017.31 1017.29 1017.49 1017.62 1017.57
1008.91 1009.57 1010.20 1010.83 1011.32 1011.66 1012.03 1012.22 1012.41 1012.58 1012.89 1013.24 1013.53 1013.66 1013.81 1014.10 1014.26 1014.13 1014.24 1014.60 1014.92 1015.79 1016.51 1017.14 1017.51 1017.63 1017.52 1017.59 1017.88 1017.90 1017.95 1018.14
1009.10 1009.62 1010.10 1010.64 1011.15 1011.59 1011.91 1012.02 1012.40 1012.68 1012.93 1013.12 1013.17 1013.30 1013.40 1013.64 1013.83 1013.78 1014.03 1014.36 1014.69 1015.01 1015.54 1015.77 1016.63 1017.29 1017.67 1017.52 1017.40 1017.82 1017.97 1018.01
1009.48 1009.99 1010.28 1010.85 1011.45 1011.91 1012.19 1012.37 1012.49 1012.51 1012.59 1012.75 1012.92 1013.07 1013.26 1013.27 1013.30 1013.53 1013.89 1014.31 1014.54 1014.70 1014.68 1015.06 1014.91 1015.39 1016.84 1017.90 1018.30 1017.81 1017.62 1018.03
1010.34 1010.57 1010.95 1011.19 1011.72 1012.29 1012.64 1012.86 1012.89 1012.81 1012.80 1012.67 1012.67 1012.70 1012.87 1013.06 1013.15 1013.15 1013.21 1013.45 1013.52 1013.62 1014.15 1014.73 1015.12 1015.46 1016.24 1017.44 1017.95 1018.37 1018.31 1018.05
1011.25 1011.35 1011.43 1011.71 1011.91 1012.35 1012.66 1012.88 1013.07 1013.04 1012.91 1012.74 1012.71 1012.86 1012.92 1012.90 1012.90 1012.69 1012.65 1012.82 1012.80 1012.81 1013.23 1013.62 1013.90 1014.85 1015.51 1017.00 1017.27 1018.11 1017.49 1018.01
1011.90 1012.17 1012.02 1012.05 1012.25 1012.48 1012.89 1013.14 1013.28 1013.27 1013.10 1012.90 1012.79 1012.77 1012.71 1012.67 1012.77 1012.69 1012.85 1012.60 1011.95 1011.85 1012.28 1012.36 1012.44 1012.99 1012.49 1013.49 1015.89 1015.95 1016.51 1016.87
1012.24 1012.38 1012.54 1012.53 1012.61 1012.88 1013.30 1013.54 1013.79 1013.40 1013.20 1012.80 1012.62 1012.49 1012.43 1012.36 1012.14 1012.14 1012.12 1012.22 1012.17 1012.22 1011.98 1011.37 1011.41 1011.34 1013.08 1011.49 1012.44 1012.31 1014.83 1015.76
1012.29 1012.44 1012.88 1012.95 1013.08 1013.25 1013.59 1013.71 1013.79 1013.63 1013.53 1013.27 1012.99 1012.67 1012.51 1012.25 1012.04 1011.88 1011.74 1011.68 1011.66 1011.60 1011.42 1011.58 1011.08 1011.09 1010.74 1010.53 1010.77 1012.76 1011.87 1014.36
1012.54 1012.61 1012.97 1013.03 1013.20 1013.47 1013.68 1013.78 1013.75 1013.73 1013.54 1013.28 1013.09 1012.83 1012.41 1011.85 1011.46 1011.22 1011.02 1010.94 1010.86 1010.94 1010.90 1010.77 1010.77 1010.70 1010.50 1010.22 1010.44 1010.57 1010.48 1010.87
1012.53 1012.70 1013.05 1013.10 1013.15 1013.24 1013.28 1013.19 1013.16 1013.19 1013.33 1013.20 1012.76 1012.16 1011.71 1011.14 1010.80 1010.50 1010.26 1010.01 1009.88 1009.96 1009.87 1009.71 1009.66 1009.49 1009.54 1009.49 1009.65 1009.94 1010.47 1011.08
1012.83 1013.06 1013.32 1013.40 1013.30 1013.18 1013.25 1013.35 1013.51 1013.49 1013.13 1012.82 1012.31 1011.73 1011.08 1010.43 1010.00 1009.48 1009.02 1008.99 1009.11 1009.18 1009.07 1008.84 1008.56 1008.06 1007.70 1007.66 1007.46 1007.66 1008.41 1009.45
Wind_Speed
9 9 9 12 13 13 13 13 12 13 12 12 12 12 12 12 11 11 10 11 9 7 5 2 5 3 5 11 11 13 6 4
9 8 8 9 9 13 15 12 12 13 13 12 12 11 11 12 11 11 12 11 9 7 5 3 4 3 4 11 12 11 5 5
7 9 8 8 10 9 15 13 12 11 11 11 10 5 6 8 8 11 11 9 7 6 5 2 4 3 2 11 10 3 4 3
8 9 9 10 6 9 8 8 6 6 8 6 3 4 4 5 7 12 12 9 8 7 5 4 4 3 3 10 3 4 3 3
9 7 8 11 8 7 4 4 5 5 6 5 5 5 4 3 3 3 4 9 3 5 4 3 5 5 4 4 5 5 3 2
8 7 9 11 6 8 6 5 5 4 6 8 6 3 2 3 3 4 3 4 5 4 2 2 3 6 7 7 6 5 4 3
9 9 9 9 10 5 6 6 6 8 7 6 6 6 6 4 2 2 2 3 4 4 4 3 3 4 5 8 9 8 6 3
9 9 6 6 5 5 4 3 4 5 5 7 8 7 6 5 4 4 3 4 4 4 5 5 5 5 5 5 8 8 8 7
13 10 7 7 6 5 4 4 4 4 4 5 8 6 8 9 8 9 8 7 6 4 4 3 4 3 6 5 5 7 7 9
10 9 10 8 7 5 4 4 4 4 4 4 7 8 6 7 7 9 8 8 8 8 5 4 4 4 4 6 4 4 5 5
10 10 10 9 6 4 4 4 3 3 3 3 6 7 8 7 7 8 7 7 7 8 7 8 6 4 5 6 6 6 6 6
9 6 9 7 4 3 2 1 1 2 4 5 6 6 8 8 8 8 6 6 6 7 9 9 7 10 7 4 3 4 5 5
9 9 6 6 4 4 3 1 1 2 2 5 5 5 6 7 7 7 8 11 13 13 11 10 7 7 6 4 2 1 2 3
8 8 8 6 4 3 3 1 1 1 1 1 2 3 4 5 7 8 8 10 12 13 13 10 9 10 7 4 4 2 6 7
7 5 6 5 6 4 3 2 2 1 1 1 1 3 5 5 6 5 8 7 10 14 14 17 12 13 19 11 4 10 6 5
7 6 6 4 4 4 2 2 1 3 3 2 3 5 6 6 6 6 6 5 7 9 10 14 15 14 9 13 2 7 8 4
6 8 7 4 3 3 2 2 2 3 4 6 6 6 7 6 7 7 6 5 7 8 8 11 12 14 14 15 14 3 3 2
6 6 5 6 5 4 4 3 4 3 4 4 5 5 6 7 10 7 7 7 8 8 9 12 12 13 11 14 14 12 9 6
5 6 6 6 6 6 5 6 7 7 7 7 11 9 9 11 9 9 8 7 8 8 11 13 13 14 17 12 13 14 10 8
7 6 4 6 7 8 7 7 4 4 5 8 9 11 12 13 12 12 13 10 9 11 10 12 14 14 22 18 14 14 14 10
Wind_Direction
156 168 171 162 160 159 157 167 170 164 167 164 159 160 164 157 150 144 138 138 153 162 160 231 94 116 111 129 123 126 120 130
161 164 172 171 172 169 175 174 173 173 169 166 167 168 166 162 158 150 144 150 166 171 172 187 75 109 133 141 134 120 112 120
169 171 171 169 175 178 182 178 177 174 173 170 164 160 165 168 163 151 142 153 168 176 177 140 57 101 146 141 127 115 120 105
181 176 169 168 170 179 179 185 181 172 180 174 131 131 153 165 176 156 154 162 169 171 190 162 125 135 138 138 122 126 113 129
184 175 163 172 175 179 179 179 176 174 151 134 147 166 178 163 168 170 159 166 179 173 188 159 155 159 164 154 148 146 144 156
175 168 172 180 173 188 186 186 181 168 170 160 168 161 144 161 174 184 170 147 174 193 195 178 179 177 175 162 159 157 160 160
180 167 180 183 182 174 188 199 199 198 185 176 171 176 184 172 175 193 208 156 170 196 197 191 204 193 175 171 167 168 165 159
168 169 158 152 166 160 171 182 190 188 190 194 188 185 176 180 179 192 190 200 177 193 199 186 190 186 192 188 178 174 168 161
174 161 139 143 146 156 167 171 174 189 184 187 194 189 186 186 189 194 196 192 186 195 212 200 176 196 200 192 177 172 173 173
149 149 142 144 158 164 165 176 187 194 187 175 198 210 207 205 209 210 203 193 186 194 189 211 203 204 184 186 181 175 171 164
127 135 137 142 150 151 168 170 181 196 195 213 218 221 219 213 218 229 201 195 199 196 199 195 192 194 197 185 166 179 176 162
111 125 134 126 117 114 90 60 227 206 216 224 236 239 246 235 229 223 203 209 214 208 205 213 200 183 177 186 229 189 172 179
81 95 93 106 88 103 72 35 324 271 273 267 257 242 230 242 250 237 211 206 215 208 219 214 212 176 130 133 136 310 252 168
73 87 95 95 101 114 124 147 99 349 355 308 261 289 299 288 284 261 221 232 231 212 210 209 200 185 169 199 158 221 197 212
101 100 112 104 100 89 65 41 22 11 324 289 253 267 279 279 271 285 289 262 238 217 218 206 216 199 193 156 163 216 160 190
124 117 107 101 87 78 87 156 216 244 238 244 273 253 257 260 259 264 265 267 263 262 248 226 216 200 222 225 197 148 204 135
96 104 112 139 150 149 158 234 298 314 311 312 298 294 279 264 254 249 251 260 273 261 248 233 235 232 215 206 197 234 121 185
94 98 64 43 50 68 82 45 337 338 311 307 284 268 264 257 253 243 234 235 249 263 265 242 234 240 240 227 222 211 177 150
87 77 58 42 38 29 20 7 358 345 320 312 311 305 297 288 262 255 242 231 232 243 252 255 242 229 229 227 223 225 237 223
98 83 57 31 27 7 356 345 331 303 299 298 292 289 284 279 266 245 237 240 252 256 257 257 259 243 234 227 220 212 199 184